Flag for Saudi Arabia Weather past 2 weeks in Qatif, Saudi Arabia

Now
59 °F

Clear.


Feels Like: 60 °F
Forecast: 57 / 75 °F
Wind: 3 mph from Northwest

Location: King Fahd International Airport

Current Time: Mar 5, 2015 at 12:11:14 AM

Latest Report: Mar 5, 2015 at 12:00 AM


Visibility: 10 mi

Pressure: 29.95 "Hg

Humidity: 68%

Dew point: 48 °F

Location of QatifLocation

Historic Weather in Qatif — Graph

°F

Qatif temperature yesterday

Maximum temperature yesterday: 81 °F (at 2:00 PM)
Minimum temperature yesterday: 55 °F (at 6:00 AM)
Average temperature yesterday: 67 °F

Past Weeks' High & Low Weather Summary

 TemperatureHumidityPressure
High84 °F (Feb 20, 1:00 PM)88% (Feb 18, 4:00 AM)30.18 "Hg (Feb 18, 4:00 AM)
Low45 °F (Feb 24, 6:00 AM)10% (Mar 1, 3:00 PM)29.53 "Hg (Feb 20, 2:00 PM)
Average64 °F48%29.95 "Hg
* Reported Feb 17 11:00 PM — Mar 4 11:00 PM, Qatif, Weather by CustomWeather, © 2015

Note: Actual official high and low records may vary slightly from our data, if they occured in-between our weather recording intervals... More about our weather records

Advertising

Qatif weather history for previous 24 hours

 ConditionsComfort  
Time TempWeatherWind HumidityBarometerVisibility
11:00 PM
Wed, Mar 4
63 °FClear.No wind59%29.95 "Hg10 mi
10:00 PM63 °FClear.5 mph59%29.95 "Hg10 mi
9:00 PM64 °FClear.6 mph60%29.95 "Hg10 mi
8:00 PM66 °FClear.6 mph46%29.95 "Hg10 mi
7:00 PM70 °FClear.8 mph33%29.92 "Hg10 mi
6:00 PM73 °FClear.13 mph23%29.92 "Hg10 mi
5:00 PM77 °FSunny.12 mph19%29.92 "Hg10 mi
4:00 PM79 °FSunny.13 mph20%29.89 "Hg10 mi
3:00 PM79 °FSunny.13 mph21%29.89 "Hg10 mi
2:00 PM81 °FSunny.10 mph17%29.89 "Hg10 mi
1:00 PM79 °FSunny.10 mph18%29.92 "Hg10 mi
12:00 PM77 °FSunny.9 mph21%29.95 "Hg10 mi
11:00 AM75 °FSunny.8 mph24%29.98 "Hg10 mi
10:00 AM72 °FSunny.10 mph29%29.98 "Hg10 mi
9:00 AM66 °FSunny.12 mph40%29.98 "Hg10 mi
8:00 AM61 °FScattered clouds.3 mph48%29.98 "HgN/A
7:00 AM57 °FScattered clouds.No wind48%29.95 "HgN/A
6:00 AM55 °FClear.No wind51%29.92 "Hg10 mi
4:00 AM57 °FClear.3 mph51%29.89 "Hg10 mi
3:00 AM57 °FClear.3 mph51%29.92 "Hg10 mi
2:00 AM57 °FClear.5 mph55%29.92 "Hg10 mi
1:00 AM61 °FClear.No wind55%29.95 "Hg10 mi
12:00 AM63 °FClear.5 mph56%29.98 "Hg10 mi
Weather by CustomWeather, © 2015

See weather overviewHow to use our weather pages